Simultaneous Nadir Overpasses (SNOs) Predictions

Prediction of SNOs between NOAA-19 and TERRA Satellite Orbit:

Table of predicted SNOs for the next 14.0 days since TLE Epoch: 8/1/2020
Index Date (NOAA-19) Time (NOAA-19) Lat,Lon (NOAA-19) SZA (NOAA-19 ) Date (TERRA) Time (TERRA) Lat,Lon (TERRA) SZA (TERRA ) Distance(km) Time Diff (sec)
1 08/01/2020 03:59:59 79.63, 148.85 62.90 08/01/2020 04:01:00 79.60, 148.81 62.90 2.83 61
2 08/01/2020 04:51:02 -79.60, -43.68 117.09 08/01/2020 04:50:27 -79.60, -43.57 117.10 2.35 35
3 08/03/2020 10:24:15 79.61, 53.08 63.50 08/03/2020 10:24:10 79.63, 53.19 63.52 3.06 5
4 08/05/2020 15:57:35 -79.63, 149.58 115.89 08/05/2020 15:57:55 -79.61, 149.65 115.90 2.61 20
5 08/05/2020 16:48:31 79.59, -42.70 64.12 08/05/2020 16:47:21 79.61, -42.70 64.12 2.80 70
6 08/07/2020 21:30:49 79.64,-113.73 64.75 08/07/2020 21:31:38 79.63,-113.63 64.77 2.24 49
7 08/07/2020 22:21:50 -79.60, 53.94 115.25 08/07/2020 22:21:06 -79.60, 53.77 115.28 3.39 44
8 08/10/2020 03:04:11 -79.75, -18.14 114.61 08/10/2020 03:05:23 -79.62, -17.15 114.61 24.23 72
9 08/10/2020 03:55:05 79.62, 150.46 65.42 08/10/2020 03:54:49 79.62, 150.47 65.40 0.78 16
10 08/12/2020 09:28:23 -79.64,-112.94 113.91 08/12/2020 09:28:33 -79.64,-112.78 113.89 3.33 10
11 08/14/2020 15:01:38 79.64, -16.16 66.80 08/14/2020 15:02:16 79.66, -16.11 66.83 2.24 38
